TimeEST,TemperatureF,Dew PointF,Humidity,Sea Level PressureIn,VisibilityMPH,Wind Direction,Wind SpeedMPH,Gust SpeedMPH,PrecipitationIn,Events,Conditions,WindDirDegrees,DateUTC
12:51 AM,19.9,-2.9,37,30.06,10.0,West,5.8,-,N/A,,Clear,270,2013-02-19 05:51:00
1:51 AM,21.0,-5.1,32,30.07,10.0,West,6.9,-,N/A,,Clear,270,2013-02-19 06:51:00
2:51 AM,21.9,-5.1,30,30.09,10.0,West,12.7,-,N/A,,Clear,270,2013-02-19 07:51:00
3:51 AM,23.0,-0.0,37,30.09,10.0,West,10.4,-,N/A,,Overcast,270,2013-02-19 08:51:00
4:51 AM,23.0,-0.9,35,30.11,10.0,NW,5.8,-,N/A,,Overcast,310,2013-02-19 09:51:00
5:51 AM,23.0,1.9,40,30.11,10.0,WNW,3.5,-,N/A,,Overcast,290,2013-02-19 10:51:00
6:51 AM,21.9,-2.0,35,30.10,10.0,Calm,Calm,-,N/A,,Partly Cloudy,0,2013-02-19 11:51:00
7:51 AM,24.1,-0.0,35,30.09,10.0,Calm,Calm,-,N/A,,Mostly Cloudy,0,2013-02-19 12:51:00
8:51 AM,27.0,3.0,36,30.09,10.0,Calm,Calm,-,N/A,,Clear,0,2013-02-19 13:51:00
9:51 AM,30.0,-0.9,27,30.09,10.0,Calm,Calm,-,N/A,,Scattered Clouds,0,2013-02-19 14:51:00
10:51 AM,30.9,7.0,37,30.09,10.0,Calm,Calm,-,N/A,,Overcast,0,2013-02-19 15:51:00
11:51 AM,35.1,10.9,37,30.05,10.0,South,11.5,-,N/A,,Clear,180,2013-02-19 16:51:00
1:51 PM,36.0,19.9,52,29.99,10.0,SSE,9.2,-,N/A,,Partly Cloudy,160,2013-02-19 18:51:00
2:51 PM,37.0,24.1,59,29.97,10.0,SSE,9.2,-,N/A,,Clear,160,2013-02-19 19:51:00
3:51 PM,39.0,28.9,67,29.92,10.0,SSE,9.2,-,N/A,,Clear,160,2013-02-19 20:51:00
4:51 PM,39.0,32.0,76,29.88,10.0,SE,6.9,-,N/A,,Overcast,140,2013-02-19 21:51:00
5:51 PM,42.1,36.0,79,29.84,10.0,SSE,12.7,-,N/A,,Overcast,160,2013-02-19 22:51:00
7:51 PM,43.0,39.9,89,29.76,7.0,South,11.5,-,0.01,Rain,Light Rain,170,2013-02-20 00:51:00
8:51 PM,42.1,39.9,92,29.73,4.0,SSE,10.4,-,0.10,Rain,Light Rain,150,2013-02-20 01:51:00
9:51 PM,43.0,41.0,93,29.65,6.0,SSE,12.7,-,0.16,Rain,Light Rain,150,2013-02-20 02:51:00
10:51 PM,44.1,42.1,93,29.59,5.0,SSE,13.8,21.9,0.12,Rain,Rain,160,2013-02-20 03:51:00
11:16 PM,44.1,42.1,93,29.57,5.0,South,13.8,19.6,0.04,Rain,Light Rain,170,2013-02-20 04:16:00
11:51 PM,44.1,42.1,93,29.55,6.0,WSW,10.4,-,0.09,Rain,Light Rain,240,2013-02-20 04:51:00